Time,TemperatureF,DewpointF,PressureIn,WindDirection,WindDirectionDegrees,WindSpeedMPH,WindSpeedGustMPH,Humidity,HourlyPrecipIn,Conditions,Clouds,dailyrainin,SolarRadiationWatts/m^2,SoftwareType,DateUTC
2013-06-08 00:02:00,63.0,46.0,-100.00,ESE,113,0.0,2.0,54,-99.99,,,0.00,0.000000,,2013-06-08 07:02:00,
2013-06-08 00:12:00,63.0,46.0,-100.00,ESE,113,0.0,2.0,54,-99.99,,,0.00,0.000000,,2013-06-08 07:12:00,
2013-06-08 00:42:00,58.0,46.0,-100.00,SW,222,1.0,3.0,65,-99.99,,,0.00,0.000000,,2013-06-08 07:42:00,
2013-06-08 00:52:00,58.0,46.0,-100.00,SW,222,1.0,3.0,65,-99.99,,,0.00,0.000000,,2013-06-08 07:52:00,
2013-06-08 01:02:00,58.0,46.0,-100.00,SW,222,1.0,3.0,65,-99.99,,,0.00,0.000000,,2013-06-08 08:02:00,
2013-06-08 01:12:00,58.0,46.0,-100.00,SW,222,1.0,3.0,65,-99.99,,,0.00,0.000000,,2013-06-08 08:12:00,
2013-06-08 01:42:00,54.0,45.0,-100.00,West,272,0.0,1.0,70,-99.99,,,0.00,0.000000,,2013-06-08 08:42:00,
2013-06-08 01:52:00,54.0,45.0,-100.00,West,272,0.0,1.0,70,-99.99,,,0.00,0.000000,,2013-06-08 08:52:00,
2013-06-08 02:02:00,54.0,45.0,-100.00,West,272,0.0,1.0,70,-99.99,,,0.00,0.000000,,2013-06-08 09:02:00,
2013-06-08 02:12:00,54.0,45.0,-100.00,West,272,0.0,1.0,70,-99.99,,,0.00,0.000000,,2013-06-08 09:12:00,
2013-06-08 02:42:00,52.0,44.0,-100.00,SW,226,0.0,2.0,73,-99.99,,,0.00,0.000000,,2013-06-08 09:42:00,
2013-06-08 02:53:00,52.0,44.0,-100.00,SW,226,0.0,2.0,73,-99.99,,,0.00,0.000000,,2013-06-08 09:53:00,
2013-06-08 03:02:00,52.0,44.0,-100.00,SW,226,0.0,2.0,73,-99.99,,,0.00,0.000000,,2013-06-08 10:02:00,
2013-06-08 03:12:00,52.0,44.0,-100.00,SW,226,0.0,2.0,73,-99.99,,,0.00,0.000000,,2013-06-08 10:12:00,
2013-06-08 03:33:00,51.0,44.0,-100.00,West,263,0.0,2.0,77,-99.99,,,0.00,0.000000,,2013-06-08 10:33:00,
2013-06-08 03:42:00,51.0,44.0,-100.00,West,263,0.0,2.0,77,-99.99,,,0.00,0.000000,,2013-06-08 10:42:00,
2013-06-08 03:53:00,51.0,44.0,-100.00,West,263,0.0,2.0,77,-99.99,,,0.00,0.000000,,2013-06-08 10:53:00,
2013-06-08 04:02:00,51.0,44.0,-100.00,West,263,0.0,2.0,77,-99.99,,,0.00,0.000000,,2013-06-08 11:02:00,
2013-06-08 04:12:00,51.0,44.0,-100.00,West,263,0.0,2.0,77,-99.99,,,0.00,0.000000,,2013-06-08 11:12:00,
2013-06-08 04:42:00,50.0,44.0,-100.00,WSW,249,1.0,4.0,81,-99.99,,,0.00,0.000000,,2013-06-08 11:42:00,
2013-06-08 04:52:00,50.0,44.0,-100.00,WSW,249,1.0,4.0,81,-99.99,,,0.00,0.000000,,2013-06-08 11:52:00,
2013-06-08 05:02:00,50.0,44.0,-100.00,WSW,249,1.0,4.0,81,-99.99,,,0.00,0.000000,,2013-06-08 12:02:00,
2013-06-08 05:12:00,50.0,44.0,-100.00,WSW,249,1.0,4.0,81,-99.99,,,0.00,0.000000,,2013-06-08 12:12:00,
2013-06-08 05:42:00,48.0,44.0,-100.00,West,273,0.0,0.0,87,-99.99,,,-99.99,1.050000,,2013-06-08 12:42:00,
2013-06-08 05:52:00,48.0,44.0,-100.00,West,273,0.0,0.0,87,-99.99,,,-99.99,1.050000,,2013-06-08 12:52:00,
2013-06-08 06:02:00,48.0,44.0,-100.00,West,273,0.0,0.0,87,-99.99,,,-99.99,1.050000,,2013-06-08 13:02:00,
2013-06-08 06:12:00,48.0,44.0,-100.00,West,273,0.0,0.0,87,-99.99,,,-99.99,1.050000,,2013-06-08 13:12:00,
2013-06-08 06:32:00,50.0,46.0,-100.00,North,349,0.0,2.0,86,-99.99,,,0.00,23.709999,,2013-06-08 13:32:00,
2013-06-08 06:42:00,50.0,46.0,-100.00,North,349,0.0,2.0,86,-99.99,,,0.00,23.709999,,2013-06-08 13:42:00,
2013-06-08 06:52:00,50.0,46.0,-100.00,North,349,0.0,2.0,86,-99.99,,,0.00,23.709999,,2013-06-08 13:52:00,
2013-06-08 07:02:00,50.0,46.0,-100.00,North,349,0.0,2.0,86,-99.99,,,0.00,23.709999,,2013-06-08 14:02:00,
2013-06-08 07:12:00,50.0,46.0,-100.00,North,349,0.0,2.0,86,-99.99,,,0.00,23.709999,,2013-06-08 14:12:00,
2013-06-08 07:42:00,56.0,47.0,-100.00,SW,225,2.0,5.0,72,-99.99,,,0.00,234.759995,,2013-06-08 14:42:00,
2013-06-08 07:52:00,56.0,47.0,-100.00,SW,225,2.0,5.0,72,-99.99,,,0.00,234.759995,,2013-06-08 14:52:00,
2013-06-08 08:02:00,56.0,47.0,-100.00,SW,225,2.0,5.0,72,-99.99,,,0.00,234.759995,,2013-06-08 15:02:00,
2013-06-08 08:12:00,56.0,47.0,-100.00,SW,225,2.0,5.0,72,-99.99,,,0.00,234.759995,,2013-06-08 15:12:00,
2013-06-08 08:32:00,62.0,48.0,-100.00,SSW,202,2.0,5.0,59,-99.99,,,0.00,440.010010,,2013-06-08 15:32:00,
2013-06-08 08:42:00,62.0,48.0,-100.00,SSW,202,2.0,5.0,59,-99.99,,,0.00,440.010010,,2013-06-08 15:42:00,
2013-06-08 08:53:00,62.0,48.0,-100.00,SSW,202,2.0,5.0,59,-99.99,,,0.00,440.010010,,2013-06-08 15:53:00,
2013-06-08 09:03:00,62.0,48.0,-100.00,SSW,202,2.0,5.0,59,-99.99,,,0.00,440.010010,,2013-06-08 16:03:00,
2013-06-08 09:12:00,62.0,48.0,-100.00,SSW,202,2.0,5.0,59,-99.99,,,0.00,440.010010,,2013-06-08 16:12:00,
2013-06-08 09:32:00,69.0,45.0,-100.00,SSW,204,1.0,4.0,42,-99.99,,,-99.99,557.159973,,2013-06-08 16:32:00,
2013-06-08 09:42:00,69.0,45.0,-100.00,SSW,204,1.0,4.0,42,-99.99,,,-99.99,557.159973,,2013-06-08 16:42:00,
2013-06-08 09:53:00,69.0,45.0,-100.00,SSW,204,1.0,4.0,42,-99.99,,,-99.99,557.159973,,2013-06-08 16:53:00,
2013-06-08 10:02:00,69.0,45.0,-100.00,SSW,204,1.0,4.0,42,-99.99,,,-99.99,557.159973,,2013-06-08 17:02:00,
2013-06-08 10:12:00,69.0,45.0,-100.00,SSW,204,1.0,4.0,42,-99.99,,,-99.99,557.159973,,2013-06-08 17:12:00,
2013-06-08 10:32:00,73.0,35.0,-100.00,SE,133,1.0,3.0,25,-99.99,,,0.00,790.989990,,2013-06-08 17:32:00,
2013-06-08 10:42:00,73.0,35.0,-100.00,SE,133,1.0,3.0,25,-99.99,,,0.00,790.989990,,2013-06-08 17:42:00,
2013-06-08 10:52:00,73.0,35.0,-100.00,SE,133,1.0,3.0,25,-99.99,,,0.00,790.989990,,2013-06-08 17:52:00,
2013-06-08 11:02:00,73.0,35.0,-100.00,SE,133,1.0,3.0,25,-99.99,,,0.00,790.989990,,2013-06-08 18:02:00,
2013-06-08 11:12:00,73.0,35.0,-100.00,SE,133,1.0,3.0,25,-99.99,,,0.00,790.989990,,2013-06-08 18:12:00,
2013-06-08 11:32:00,77.0,33.0,-100.00,ENE,75,1.0,4.0,20,-99.99,,,0.00,914.650024,,2013-06-08 18:32:00,
2013-06-08 11:42:00,77.0,33.0,-100.00,ENE,75,1.0,4.0,20,-99.99,,,0.00,914.650024,,2013-06-08 18:42:00,
2013-06-08 11:52:00,77.0,33.0,-100.00,ENE,75,1.0,4.0,20,-99.99,,,0.00,914.650024,,2013-06-08 18:52:00,
2013-06-08 12:02:00,77.0,33.0,-100.00,ENE,75,1.0,4.0,20,-99.99,,,0.00,914.650024,,2013-06-08 19:02:00,
2013-06-08 12:12:00,77.0,33.0,-100.00,ENE,75,1.0,4.0,20,-99.99,,,0.00,914.650024,,2013-06-08 19:12:00,
2013-06-08 12:42:00,79.0,24.0,-100.00,NW,322,2.0,7.0,13,-99.99,,,0.00,992.520020,,2013-06-08 19:42:00,
2013-06-08 12:53:00,79.0,24.0,-100.00,NW,322,2.0,7.0,13,-99.99,,,0.00,992.520020,,2013-06-08 19:53:00,
2013-06-08 13:02:00,79.0,24.0,-100.00,NW,322,2.0,7.0,13,-99.99,,,0.00,992.520020,,2013-06-08 20:02:00,
2013-06-08 13:12:00,79.0,24.0,-100.00,NW,322,2.0,7.0,13,-99.99,,,0.00,992.520020,,2013-06-08 20:12:00,
2013-06-08 13:32:00,81.0,26.0,-100.00,NE,47,3.0,10.0,13,-99.99,,,0.00,1015.760010,,2013-06-08 20:32:00,
2013-06-08 13:42:00,81.0,26.0,-100.00,NE,47,3.0,10.0,13,-99.99,,,0.00,1015.760010,,2013-06-08 20:42:00,
2013-06-08 13:52:00,81.0,26.0,-100.00,NE,47,3.0,10.0,13,-99.99,,,0.00,1015.760010,,2013-06-08 20:52:00,
2013-06-08 14:02:00,81.0,26.0,-100.00,NE,47,3.0,10.0,13,-99.99,,,0.00,1015.760010,,2013-06-08 21:02:00,
2013-06-08 14:12:00,81.0,26.0,-100.00,NE,47,3.0,10.0,13,-99.99,,,0.00,1015.760010,,2013-06-08 21:12:00,
2013-06-08 14:33:00,84.0,30.0,-100.00,NW,326,3.0,9.0,14,-99.99,,,0.00,982.059998,,2013-06-08 21:33:00,
2013-06-08 14:43:00,84.0,30.0,-100.00,NW,326,3.0,9.0,14,-99.99,,,0.00,982.059998,,2013-06-08 21:43:00,
2013-06-08 14:53:00,84.0,30.0,-100.00,NW,326,3.0,9.0,14,-99.99,,,0.00,982.059998,,2013-06-08 21:53:00,
2013-06-08 15:02:00,84.0,30.0,-100.00,NW,326,3.0,9.0,14,-99.99,,,0.00,982.059998,,2013-06-08 22:02:00,
2013-06-08 15:12:00,84.0,30.0,-100.00,NW,326,3.0,9.0,14,-99.99,,,0.00,982.059998,,2013-06-08 22:12:00,
2013-06-08 15:33:00,85.0,33.0,-100.00,NNW,333,3.0,10.0,15,-99.99,,,0.00,894.890015,,2013-06-08 22:33:00,
2013-06-08 15:42:00,85.0,33.0,-100.00,NNW,333,3.0,10.0,15,-99.99,,,0.00,894.890015,,2013-06-08 22:42:00,
2013-06-08 15:52:00,85.0,33.0,-100.00,NNW,333,3.0,10.0,15,-99.99,,,0.00,894.890015,,2013-06-08 22:52:00,
2013-06-08 16:02:00,85.0,33.0,-100.00,NNW,333,3.0,10.0,15,-99.99,,,0.00,894.890015,,2013-06-08 23:02:00,
2013-06-08 16:12:00,85.0,33.0,-100.00,NNW,333,3.0,10.0,15,-99.99,,,0.00,894.890015,,2013-06-08 23:12:00,
2013-06-08 16:42:00,85.0,38.0,-100.00,NNW,348,5.0,15.0,19,-99.99,,,0.00,760.080017,,2013-06-08 23:42:00,
2013-06-08 16:52:00,85.0,38.0,-100.00,NNW,348,5.0,15.0,19,-99.99,,,0.00,760.080017,,2013-06-08 23:52:00,
2013-06-08 17:02:00,85.0,38.0,-100.00,NNW,348,5.0,15.0,19,-99.99,,,0.00,760.080017,,2013-06-09 00:02:00,
2013-06-08 17:12:00,85.0,38.0,-100.00,NNW,348,5.0,15.0,19,-99.99,,,0.00,760.080017,,2013-06-09 00:12:00,
2013-06-08 17:42:00,84.0,39.0,-100.00,NW,321,4.0,12.0,20,-99.99,,,0.00,592.020020,,2013-06-09 00:42:00,
2013-06-08 17:52:00,84.0,39.0,-100.00,NW,321,4.0,12.0,20,-99.99,,,0.00,592.020020,,2013-06-09 00:52:00,
2013-06-08 18:02:00,84.0,39.0,-100.00,NW,321,4.0,12.0,20,-99.99,,,0.00,592.020020,,2013-06-09 01:02:00,
2013-06-08 18:12:00,84.0,39.0,-100.00,NW,321,4.0,12.0,20,-99.99,,,0.00,592.020020,,2013-06-09 01:12:00,
2013-06-08 18:32:00,81.0,43.0,-100.00,NNW,338,5.0,13.0,26,-99.99,,,0.00,408.049988,,2013-06-09 01:32:00,
2013-06-08 18:42:00,81.0,43.0,-100.00,NNW,338,5.0,13.0,26,-99.99,,,0.00,408.049988,,2013-06-09 01:42:00,
2013-06-08 18:52:00,81.0,43.0,-100.00,NNW,338,5.0,13.0,26,-99.99,,,0.00,408.049988,,2013-06-09 01:52:00,
2013-06-08 19:02:00,81.0,43.0,-100.00,NNW,338,5.0,13.0,26,-99.99,,,0.00,408.049988,,2013-06-09 02:02:00,
2013-06-08 19:12:00,81.0,43.0,-100.00,NNW,338,5.0,13.0,26,-99.99,,,0.00,408.049988,,2013-06-09 02:12:00,
2013-06-08 19:32:00,79.0,43.0,-100.00,NNW,337,5.0,16.0,27,-99.99,,,0.00,25.799999,,2013-06-09 02:32:00,
2013-06-08 19:42:00,79.0,43.0,-100.00,NNW,337,5.0,16.0,27,-99.99,,,0.00,25.799999,,2013-06-09 02:42:00,
2013-06-08 19:52:00,79.0,43.0,-100.00,NNW,337,5.0,16.0,27,-99.99,,,0.00,25.799999,,2013-06-09 02:52:00,
2013-06-08 20:02:00,79.0,43.0,-100.00,NNW,337,5.0,16.0,27,-99.99,,,0.00,25.799999,,2013-06-09 03:02:00,
2013-06-08 20:12:00,79.0,43.0,-100.00,NNW,337,5.0,16.0,27,-99.99,,,0.00,25.799999,,2013-06-09 03:12:00,
2013-06-08 20:43:00,76.0,42.0,-100.00,North,353,5.0,11.0,29,-99.99,,,0.00,13.710000,,2013-06-09 03:43:00,
2013-06-08 20:53:00,76.0,42.0,-100.00,North,353,5.0,11.0,29,-99.99,,,0.00,13.710000,,2013-06-09 03:53:00,
2013-06-08 21:02:00,76.0,42.0,-100.00,North,353,5.0,11.0,29,-99.99,,,0.00,13.710000,,2013-06-09 04:02:00,
2013-06-08 21:12:00,76.0,42.0,-100.00,North,353,5.0,11.0,29,-99.99,,,0.00,13.710000,,2013-06-09 04:12:00,
2013-06-08 21:32:00,73.0,42.0,-100.00,North,0,2.0,6.0,32,-99.99,,,0.00,0.460000,,2013-06-09 04:32:00,
2013-06-08 21:42:00,73.0,42.0,-100.00,North,0,2.0,6.0,32,-99.99,,,0.00,0.460000,,2013-06-09 04:42:00,
2013-06-08 21:53:00,73.0,42.0,-100.00,North,0,2.0,6.0,32,-99.99,,,0.00,0.460000,,2013-06-09 04:53:00,
2013-06-08 22:02:00,73.0,42.0,-100.00,North,0,2.0,6.0,32,-99.99,,,0.00,0.460000,,2013-06-09 05:02:00,
2013-06-08 22:12:00,73.0,42.0,-100.00,North,0,2.0,6.0,32,-99.99,,,0.00,0.460000,,2013-06-09 05:12:00,
2013-06-08 22:32:00,69.0,42.0,-100.00,NNW,341,1.0,4.0,37,-99.99,,,0.00,0.000000,,2013-06-09 05:32:00,
2013-06-08 22:42:00,69.0,42.0,-100.00,NNW,341,1.0,4.0,37,-99.99,,,0.00,0.000000,,2013-06-09 05:42:00,
2013-06-08 22:52:00,69.0,42.0,-100.00,NNW,341,1.0,4.0,37,-99.99,,,0.00,0.000000,,2013-06-09 05:52:00,
2013-06-08 23:02:00,69.0,42.0,-100.00,NNW,341,1.0,4.0,37,-99.99,,,0.00,0.000000,,2013-06-09 06:02:00,
2013-06-08 23:11:00,69.0,42.0,-100.00,NNW,341,1.0,4.0,37,-99.99,,,0.00,0.000000,,2013-06-09 06:11:00,
2013-06-08 23:32:00,66.0,43.0,-100.00,NW,321,0.0,1.0,43,-99.99,,,0.00,0.000000,,2013-06-09 06:32:00,
2013-06-08 23:42:00,66.0,43.0,-100.00,NW,321,0.0,1.0,43,-99.99,,,0.00,0.000000,,2013-06-09 06:42:00,
2013-06-08 23:52:00,66.0,43.0,-100.00,NW,321,0.0,1.0,43,-99.99,,,0.00,0.000000,,2013-06-09 06:52:00,